• In Schweiz
  • Länderverzeichnis
  • Für 7 Tage
  • Wassertemperatur
  • Satellitenkarten
  • Wetterkarte
  • Widgets
  • user-avatar
    Anmelden

    Stündliche Wetter Punta Cana

    Heute, 21 Februar, Mittwoch

    Zeit Temperatur Niederschläge Wind Luftdruck Luftfeuchtigkeit
    00:00 +24°C° 0,1 mm 8 m/S 767 mmHg 81%
    01:00 +24°C° 0,1 mm 8 m/S 766 mmHg 81%
    02:00 +24°C° 0,2 mm 8 m/S 766 mmHg 82%
    03:00 +24°C° 0,2 mm 8 m/S 766 mmHg 82%
    04:00 +24°C° 0,2 mm 8 m/S 766 mmHg 82%
    05:00 +24°C° 0,2 mm 8 m/S 766 mmHg 81%
    06:00 +26°C° 0,2 mm 8 m/S 766 mmHg 79%
    07:00 +26°C° 0,2 mm 8 m/S 767 mmHg 78%
    08:00 +27°C° 0,2 mm 8 m/S 767 mmHg 73%
    09:00 +28°C° 0,2 mm 9 m/S 767 mmHg 68%
    10:00 +29°C° 0,2 mm 9 m/S 768 mmHg 63%
    11:00 +31°C° 0,1 mm 9 m/S 767 mmHg 61%
    12:00 +31°C° 0,1 mm 9 m/S 767 mmHg 59%
    13:00 +32°C° 0,1 mm 9 m/S 766 mmHg 57%
    14:00 +31°C° 0,2 mm 9 m/S 766 mmHg 59%
    15:00 +29°C° 0,2 mm 10 m/S 766 mmHg 62%
    16:00 +29°C° 0,2 mm 10 m/S 766 mmHg 64%
    17:00 +28°C° 0,3 mm 10 m/S 766 mmHg 67%
    18:00 +27°C° 0,3 mm 10 m/S 766 mmHg 70%
    19:00 +26°C° 0,3 mm 10 m/S 767 mmHg 73%
    20:00 +26°C° 0,1 mm 10 m/S 767 mmHg 74%
    21:00 +26°C° 0,1 mm 10 m/S 767 mmHg 75%
    22:00 +26°C° 0,1 mm 10 m/S 767 mmHg 76%
    23:00 +26°C° 0 mm 9 m/S 767 mmHg 76%

    Morgen, 22 Februar, Donnerstag

    Zeit Temperatur Niederschläge Wind Luftdruck Luftfeuchtigkeit
    00:00 +24°C° 0 mm 9 m/S 767 mmHg 75%
    01:00 +24°C° 0 mm 9 m/S 767 mmHg 74%
    02:00 +24°C° 0 mm 9 m/S 766 mmHg 74%
    03:00 +24°C° 0 mm 9 m/S 766 mmHg 74%
    04:00 +24°C° 0 mm 9 m/S 766 mmHg 74%
    05:00 +24°C° 0 mm 9 m/S 766 mmHg 72%
    06:00 +24°C° 0 mm 9 m/S 767 mmHg 70%
    07:00 +26°C° 0 mm 9 m/S 767 mmHg 68%
    08:00 +27°C° 0 mm 9 m/S 768 mmHg 63%
    09:00 +28°C° 0 mm 9 m/S 768 mmHg 57%
    10:00 +31°C° 0 mm 9 m/S 768 mmHg 52%
    11:00 +31°C° 0 mm 9 m/S 768 mmHg 52%
    12:00 +31°C° 0 mm 9 m/S 767 mmHg 51%
    13:00 +31°C° 0 mm 8 m/S 766 mmHg 51%
    14:00 +31°C° 0,1 mm 8 m/S 766 mmHg 54%
    15:00 +29°C° 0,1 mm 9 m/S 765 mmHg 57%
    16:00 +29°C° 0,1 mm 9 m/S 765 mmHg 60%
    17:00 +28°C° 0,1 mm 9 m/S 765 mmHg 64%
    18:00 +27°C° 0,1 mm 9 m/S 766 mmHg 68%
    19:00 +26°C° 0,1 mm 9 m/S 766 mmHg 71%
    20:00 +26°C° 0 mm 9 m/S 766 mmHg 72%
    21:00 +26°C° 0 mm 9 m/S 766 mmHg 72%
    22:00 +26°C° 0 mm 9 m/S 766 mmHg 73%
    23:00 +24°C° 0,2 mm 9 m/S 766 mmHg 75%

    übermorgen, 23 Februar, Freitag

    Zeit Temperatur Niederschläge Wind Luftdruck Luftfeuchtigkeit
    00:00 +24°C° 0,2 mm 9 m/S 766 mmHg 77%
    01:00 +24°C° 0,2 mm 9 m/S 766 mmHg 79%
    02:00 +23°C° 0,4 mm 9 m/S 765 mmHg 80%
    03:00 +23°C° 0,4 mm 9 m/S 765 mmHg 81%
    04:00 +23°C° 0,4 mm 9 m/S 765 mmHg 82%
    05:00 +23°C° 0,1 mm 9 m/S 765 mmHg 80%
    06:00 +24°C° 0,1 mm 9 m/S 766 mmHg 78%
    07:00 +24°C° 0,1 mm 8 m/S 766 mmHg 76%
    08:00 +27°C° 0 mm 8 m/S 766 mmHg 69%
    09:00 +28°C° 0 mm 8 m/S 767 mmHg 62%
    10:00 +31°C° 0 mm 8 m/S 767 mmHg 55%
    11:00 +31°C° 0 mm 8 m/S 766 mmHg 55%
    12:00 +31°C° 0 mm 8 m/S 765 mmHg 54%
    13:00 +31°C° 0 mm 8 m/S 765 mmHg 53%
    14:00 +31°C° 0 mm 8 m/S 764 mmHg 56%
    15:00 +29°C° 0 mm 9 m/S 764 mmHg 58%
    16:00 +29°C° 0 mm 9 m/S 764 mmHg 60%
    17:00 +28°C° 0 mm 9 m/S 764 mmHg 65%
    18:00 +27°C° 0 mm 9 m/S 764 mmHg 69%
    19:00 +26°C° 0 mm 9 m/S 764 mmHg 74%
    20:00 +26°C° 0,1 mm 9 m/S 765 mmHg 74%
    21:00 +24°C° 0,1 mm 8 m/S 765 mmHg 74%
    22:00 +24°C° 0,1 mm 8 m/S 765 mmHg 74%
    23:00 +24°C° 0,2 mm 8 m/S 765 mmHg 74%

    24 Februar, Samstag

    Zeit Temperatur Niederschläge Wind Luftdruck Luftfeuchtigkeit
    00:00 +24°C° 0,2 mm 8 m/S 764 mmHg 75%
    01:00 +24°C° 0,2 mm 8 m/S 764 mmHg 75%
    02:00 +24°C° 0,3 mm 8 m/S 764 mmHg 75%
    03:00 +24°C° 0,3 mm 8 m/S 763 mmHg 75%
    04:00 +24°C° 0,3 mm 7 m/S 763 mmHg 75%
    05:00 +24°C° 0,2 mm 7 m/S 764 mmHg 74%
    06:00 +24°C° 0,2 mm 7 m/S 764 mmHg 73%
    07:00 +26°C° 0,2 mm 7 m/S 765 mmHg 72%
    08:00 +27°C° 0,1 mm 7 m/S 765 mmHg 68%
    09:00 +28°C° 0,1 mm 8 m/S 765 mmHg 64%
    10:00 +29°C° 0,1 mm 8 m/S 765 mmHg 60%
    11:00 +31°C° 0 mm 8 m/S 765 mmHg 58%
    12:00 +31°C° 0 mm 8 m/S 764 mmHg 56%
    13:00 +30°C° 0 mm 7 m/S 763 mmHg 55%
    14:00 +31°C° 0,2 mm 8 m/S 763 mmHg 57%
    15:00 +29°C° 0,2 mm 8 m/S 763 mmHg 59%
    16:00 +29°C° 0,2 mm 8 m/S 763 mmHg 61%
    17:00 +28°C° 0,1 mm 8 m/S 763 mmHg 65%
    18:00 +27°C° 0,1 mm 8 m/S 763 mmHg 70%
    19:00 +26°C° 0,1 mm 7 m/S 764 mmHg 74%
    20:00 +26°C° 0,1 mm 7 m/S 764 mmHg 75%
    21:00 +26°C° 0,1 mm 7 m/S 764 mmHg 75%
    22:00 +24°C° 0,1 mm 7 m/S 765 mmHg 76%
    23:00 +24°C° 0 mm 7 m/S 764 mmHg 77%

    25 Februar, Sonntag

    Zeit Temperatur Niederschläge Wind Luftdruck Luftfeuchtigkeit
    00:00 +24°C° 0 mm 7 m/S 764 mmHg 77%
    01:00 +24°C° 0 mm 7 m/S 764 mmHg 78%
    02:00 +24°C° 0 mm 6 m/S 764 mmHg 78%
    03:00 +24°C° 0 mm 6 m/S 764 mmHg 78%
    04:00 +23°C° 0 mm 6 m/S 763 mmHg 79%
    05:00 +24°C° 0 mm 6 m/S 764 mmHg 77%
    06:00 +24°C° 0 mm 6 m/S 764 mmHg 75%
    07:00 +26°C° 0 mm 6 m/S 765 mmHg 73%
    08:00 +27°C° 0,1 mm 6 m/S 765 mmHg 68%
    09:00 +29°C° 0,1 mm 7 m/S 765 mmHg 63%
    10:00 +30°C° 0,1 mm 7 m/S 765 mmHg 58%
    11:00 +30°C° 0,3 mm 7 m/S 765 mmHg 61%
    12:00 +29°C° 0,3 mm 7 m/S 764 mmHg 65%
    13:00 +29°C° 0,3 mm 7 m/S 764 mmHg 68%
    14:00 +29°C° 0,2 mm 7 m/S 763 mmHg 68%
    15:00 +28°C° 0,2 mm 7 m/S 763 mmHg 67%
    16:00 +28°C° 0,2 mm 7 m/S 763 mmHg 67%
    17:00 +27°C° 0,2 mm 7 m/S 763 mmHg 72%
    18:00 +26°C° 0,2 mm 7 m/S 763 mmHg 76%
    19:00 +24°C° 0,2 mm 7 m/S 764 mmHg 81%
    20:00 +24°C° 0,4 mm 7 m/S 764 mmHg 81%
    21:00 +24°C° 0,4 mm 7 m/S 764 mmHg 80%
    22:00 +24°C° 0,4 mm 7 m/S 765 mmHg 80%
    23:00 +24°C° 0,5 mm 7 m/S 764 mmHg 81%

    26 Februar, Montag

    Zeit Temperatur Niederschläge Wind Luftdruck Luftfeuchtigkeit
    00:00 +24°C° 0,5 mm 7 m/S 764 mmHg 82%
    01:00 +24°C° 0,5 mm 7 m/S 764 mmHg 83%
    02:00 +23°C° 0,4 mm 7 m/S 764 mmHg 84%
    03:00 +23°C° 0,4 mm 7 m/S 763 mmHg 85%
    04:00 +23°C° 0,4 mm 7 m/S 763 mmHg 86%
    05:00 +24°C° 0 mm 7 m/S 764 mmHg 83%
    06:00 +24°C° 0 mm 7 m/S 764 mmHg 81%
    07:00 +26°C° 0 mm 7 m/S 765 mmHg 78%
    08:00 +27°C° 0 mm 7 m/S 765 mmHg 72%
    09:00 +29°C° 0 mm 7 m/S 765 mmHg 65%
    10:00 +31°C° 0 mm 8 m/S 765 mmHg 58%
    11:00 +30°C° 0 mm 7 m/S 764 mmHg 57%
    12:00 +32°C° 0 mm 7 m/S 764 mmHg 55%
    13:00 +32°C° 0 mm 7 m/S 763 mmHg 53%
    14:00 +30°C° 0 mm 7 m/S 763 mmHg 56%
    15:00 +30°C° 0 mm 7 m/S 763 mmHg 59%
    16:00 +29°C° 0 mm 7 m/S 762 mmHg 61%
    17:00 +28°C° 0 mm 6 m/S 762 mmHg 67%
    18:00 +26°C° 0 mm 6 m/S 763 mmHg 73%
    19:00 +24°C° 0 mm 6 m/S 763 mmHg 79%
    20:00 +24°C° 0 mm 6 m/S 763 mmHg 80%
    21:00 +24°C° 0 mm 6 m/S 763 mmHg 81%
    22:00 +24°C° 0 mm 6 m/S 763 mmHg 82%
    23:00 +25°C° 0,1 mm 5 m/S 763 mmHg 83%
    Mehr zeigen